Probability
97 97 100 100 100 100 100 97 100 100 100 97 97 94 90 84 87 94 94 94 100 100 100 97 100 100 97 97 97 100 100 100 100 100 100 100 100 100 100 100 100 100 100
94 100 100 100 100 100 100 100 100 100 100 100 97 94 94 97 97 87 90 97 94 97 97 97 97 97 100 97 97 100 100 100 100 100 100 100 100 100 100 100 100 100 100
94 97 100 100 100 100 100 100 100 100 100 100 97 100 100 100 97 97 94 97 97 90 90 94 97 97 97 97 94 97 100 97 97 97 100 100 100 100 100 100 100 100 100
94 90 100 100 100 100 100 100 100 100 100 100 100 100 100 100 100 100 97 94 97 90 87 94 94 97 97 97 97 94 100 97 97 100 94 90 90 97 100 100 100 100 94
100 100 100 100 100 100 100 100 100 100 100 100 100 100 97 97 97 97 94 87 84 81 87 90 90 94 90 97 97 97 94 90 97 100 90 90 81 100 100 100 100 97 97
100 100 100 100 100 100 100 100 100 100 100 97 90 90 94 90 90 90 87 90 81 87 81 87 84 81 87 84 87 84 87 90 90 87 94 87 81 94 97 97 100 97 97
100 100 100 100 100 100 100 100 100 100 100 100 94 97 94 90 90 84 77 74 74 71 71 74 74 71 84 81 81 81 84 81 84 87 87 87 90 94 87 97 100 94 94
97 100 100 100 100 100 100 100 100 97 97 97 97 94 90 90 87 84 81 61 52 52 55 68 68 71 84 77 74 77 74 84 68 68 90 90 94 97 94 90 94 94 84
61 100 100 100 100 100 100 100 100 97 94 94 94 97 94 94 87 84 81 65 45 42 39 45 48 61 58 68 77 84 84 81 77 68 74 90 94 94 90 87 87 87 90
26 61 81 94 100 100 100 100 100 100 100 97 97 97 97 94 90 84 81 71 52 29 19 35 39 52 65 74 84 84 97 77 29 58 55 74 100 94 77 81 87 87 87
26 29 35 48 61 94 100 100 100 100 100 100 100 100 100 94 90 94 81 87 58 32 23 23 42 52 58 71 84 97 81 10 29 45 52 94 94 84 81 81 81 87 81
29 19 13 19 32 61 74 97 100 100 100 97 97 97 97 87 81 87 90 87 71 52 35 32 45 58 52 6 35 84 6 10 29 35 52 97 87 58 71 74 71 81 81
6 6 6 13 13 19 52 81 90 97 100 97 84 81 68 61 71 71 48 71 55 29 10 10 23 13 3 0 0 0 0 10 3 6 35 90 68 42 48 55 58 55 68
3 6 3 3 10 10 16 32 84 90 90 87 77 65 55 42 35 35 39 42 13 13 6 6 3 0 0 0 0 0 0 0 0 3 16 81 55 32 35 35 42 45 58
3 3 3 3 3 3 10 26 26 55 84 77 74 61 61 39 23 13 19 23 6 6 3 10 0 0 0 0 0 0 0 0 0 0 0 81 52 26 23 19 35 39 39
0 0 0 3 0 0 0 3 6 19 48 65 74 55 48 52 42 26 23 13 6 3 6 0 0 0 0 0 0 0 0 0 0 0 0 10 42 23 32 23 23 32 26
0 0 0 0 0 0 0 3 3 16 23 32 52 45 48 48 48 26 16 13 13 6 0 0 0 0 0 0 0 0 0 0 0 0 0 0 3 16 26 32 29 32 16
0 0 0 0 0 0 0 0 3 6 16 29 23 42 35 35 39 42 39 26 13 0 0 0 0 0 0 0 0 0 0 0 0 0 0 0 0 0 10 45 45 48 39
0 0 0 0 0 0 0 0 3 10 13 10 29 35 42 29 45 48 55 42 16 16 6 0 0 0 0 0 0 0 0 0 0 0 0 0 0 0 0 6 45 45 42
0 0 0 0 0 0 0 0 3 10 19 19 26 35 42 55 45 32 45 42 23 29 13 3 0 0 0 0 0 0 0 0 0 0 0 0 0 0 0 0 0 0 42
0 0 0 0 0 0 0 0 3 6 13 16 19 26 48 45 55 42 32 32 23 26 10 0 0 0 0 0 0 0 0 0 0 0 0 0 0 0 0 0 0 0 0
0 0 0 0 0 0 0 0 0 0 0 13 13 16 32 35 42 42 42 29 29 13 10 6 0 0 0 0 0 0 0 0 0 0 0 0 0 0 0 0 0 0 0
0 0 0 0 0 0 0 3 0 3 3 10 23 19 32 32 35 39 29 45 26 13 13 19 10 0 0 0 0 0 0 0 0 0 0 0 0 0 0 0 0 0 0
0 0 0 0 0 3 3 3 0 0 0 6 16 19 26 32 32 39 29 26 23 19 10 13 6 3 0 0 0 0 0 0 0 0 0 0 0 0 0 0 0 0 0
0 0 0 0 3 0 0 3 0 0 3 10 16 16 29 29 35 39 32 29 23 19 16 13 0 0 0 0 0 0 0 0 0 0 0 0 0 0 0 0 0 0 0
0 0 0 0 0 0 3 3 0 0 6 3 6 13 19 19 29 35 26 29 23 19 23 16 13 3 0 0 0 0 0 0 0 0 0 0 0 0 0 0 0 0 0
Height
5913 5912 5912 5912 5912 5912 5912 5911 5911 5910 5909 5909 5908 5908 5907 5907 5906 5906 5906 5906 5906 5907 5907 5907 5908 5909 5911 5912 5913 5914 5916 5917 5918 5919 5919 5920 5920 5921 5921 5921 5921 5921 5921
5914 5913 5913 5913 5913 5913 5913 5913 5912 5911 5911 5910 5909 5909 5908 5908 5907 5907 5906 5906 5906 5906 5906 5907 5907 5908 5909 5910 5911 5913 5914 5915 5916 5917 5918 5918 5919 5919 5920 5920 5920 5920 5921
5914 5914 5914 5914 5914 5914 5914 5914 5913 5913 5912 5911 5911 5910 5909 5909 5908 5908 5907 5907 5907 5906 5906 5907 5907 5907 5908 5909 5910 5911 5912 5913 5914 5915 5916 5916 5917 5917 5918 5919 5919 5920 5920
5915 5915 5915 5915 5915 5915 5915 5915 5914 5914 5913 5913 5912 5911 5911 5910 5909 5908 5908 5907 5907 5907 5906 5906 5907 5907 5907 5908 5908 5909 5910 5912 5913 5914 5914 5915 5915 5916 5917 5918 5918 5919 5919
5915 5915 5915 5915 5915 5915 5915 5915 5915 5914 5914 5913 5913 5912 5912 5911 5910 5909 5909 5908 5907 5907 5907 5906 5906 5906 5907 5907 5908 5908 5909 5910 5912 5912 5913 5914 5914 5915 5916 5916 5917 5918 5919
5915 5915 5915 5915 5915 5915 5915 5915 5915 5915 5914 5914 5914 5913 5912 5912 5911 5910 5910 5909 5908 5907 5907 5906 5906 5906 5906 5907 5907 5908 5908 5909 5910 5911 5911 5912 5913 5914 5915 5916 5917 5918 5918
5915 5914 5914 5914 5914 5914 5914 5914 5914 5914 5914 5914 5914 5913 5913 5912 5912 5911 5910 5910 5909 5908 5907 5907 5907 5906 5906 5907 5907 5907 5908 5909 5910 5910 5911 5912 5913 5913 5914 5915 5916 5917 5918
5913 5913 5913 5913 5913 5912 5912 5913 5913 5913 5913 5913 5913 5913 5913 5912 5912 5911 5911 5910 5909 5909 5908 5907 5907 5907 5906 5907 5907 5907 5908 5908 5909 5909 5910 5911 5912 5913 5914 5915 5916 5917 5918
5912 5912 5911 5911 5911 5911 5911 5911 5911 5911 5911 5912 5912 5912 5912 5912 5911 5911 5911 5910 5910 5909 5909 5908 5908 5907 5907 5907 5907 5907 5908 5908 5909 5910 5911 5911 5912 5913 5914 5915 5916 5917 5918
5910 5910 5909 5909 5908 5908 5908 5908 5908 5909 5909 5909 5910 5910 5910 5910 5910 5910 5910 5910 5910 5909 5909 5909 5908 5908 5908 5907 5907 5907 5908 5908 5909 5910 5911 5912 5913 5913 5914 5915 5916 5917 5918
5908 5907 5906 5906 5905 5905 5905 5905 5905 5905 5906 5906 5907 5907 5908 5908 5908 5908 5908 5909 5909 5909 5909 5909 5908 5908 5908 5908 5908 5908 5908 5909 5910 5911 5911 5912 5913 5914 5915 5915 5916 5917 5918
5904 5903 5903 5902 5901 5901 5901 5902 5901 5901 5902 5902 5903 5903 5904 5905 5905 5905 5906 5907 5907 5907 5908 5908 5908 5908 5908 5908 5908 5908 5908 5909 5910 5911 5911 5912 5913 5914 5915 5916 5917 5918 5919
5899 5899 5898 5897 5897 5896 5896 5896 5896 5897 5897 5897 5898 5898 5899 5900 5901 5902 5903 5904 5905 5905 5906 5906 5907 5907 5907 5908 5908 5908 5908 5909 5910 5911 5911 5912 5913 5914 5915 5916 5917 5918 5919
5893 5893 5892 5892 5891 5891 5890 5890 5890 5890 5891 5891 5892 5893 5893 5894 5896 5898 5899 5899 5901 5902 5903 5903 5904 5905 5906 5907 5907 5908 5908 5909 5910 5910 5911 5912 5913 5914 5915 5916 5917 5918 5918
5887 5886 5886 5885 5885 5884 5884 5884 5884 5884 5884 5885 5885 5886 5887 5889 5891 5893 5894 5896 5897 5898 5899 5900 5901 5902 5904 5905 5906 5906 5907 5908 5909 5910 5910 5911 5912 5913 5914 5915 5916 5917 5918
5878 5878 5878 5877 5877 5877 5876 5876 5876 5877 5877 5878 5879 5879 5880 5882 5884 5886 5889 5890 5891 5893 5895 5896 5898 5899 5900 5901 5903 5904 5905 5906 5907 5908 5909 5910 5911 5912 5913 5914 5915 5916 5917
5869 5869 5869 5869 5868 5868 5868 5868 5868 5869 5869 5870 5871 5872 5874 5875 5876 5879 5882 5884 5886 5887 5889 5891 5893 5895 5896 5898 5899 5901 5902 5903 5905 5906 5907 5908 5909 5910 5912 5913 5914 5915 5916
5860 5859 5859 5859 5859 5859 5859 5859 5859 5860 5861 5862 5863 5865 5866 5868 5869 5871 5875 5877 5879 5881 5883 5885 5887 5889 5891 5893 5895 5896 5898 5900 5901 5903 5904 5906 5907 5908 5909 5910 5912 5913 5914
5851 5850 5849 5849 5848 5848 5848 5848 5849 5850 5851 5852 5854 5856 5858 5860 5861 5864 5866 5869 5872 5874 5876 5878 5881 5883 5885 5887 5889 5891 5893 5895 5897 5899 5901 5902 5904 5905 5906 5908 5909 5910 5912
5841 5840 5839 5838 5838 5838 5838 5838 5838 5839 5840 5842 5844 5847 5849 5851 5853 5856 5857 5860 5863 5867 5869 5871 5873 5876 5878 5881 5883 5886 5888 5890 5892 5894 5896 5898 5900 5901 5902 5904 5905 5907 5908
5831 5829 5828 5827 5827 5826 5826 5826 5827 5828 5829 5831 5834 5836 5839 5842 5844 5847 5850 5852 5855 5858 5861 5864 5866 5868 5871 5874 5877 5880 5882 5884 5887 5889 5891 5893 5895 5897 5898 5899 5901 5903 5904
5822 5820 5817 5816 5815 5814 5814 5814 5815 5816 5817 5820 5822 5825 5828 5832 5835 5837 5840 5844 5847 5850 5853 5856 5859 5861 5864 5867 5870 5873 5875 5878 5880 5883 5885 5887 5889 5891 5894 5895 5897 5898 5899
5813 5811 5808 5806 5804 5803 5803 5803 5803 5804 5805 5808 5810 5813 5817 5820 5824 5828 5831 5834 5837 5841 5845 5848 5851 5854 5857 5859 5863 5866 5868 5871 5873 5876 5879 5881 5883 5885 5887 5889 5891 5893 5895
5806 5803 5800 5798 5796 5794 5793 5792 5792 5793 5794 5796 5798 5801 5805 5809 5813 5817 5821 5824 5829 5833 5836 5840 5844 5846 5849 5852 5855 5858 5861 5864 5867 5870 5872 5875 5876 5879 5881 5883 5885 5887 5890
5801 5797 5794 5791 5788 5786 5784 5783 5783 5783 5784 5785 5787 5790 5794 5798 5802 5806 5811 5815 5820 5824 5828 5832 5836 5838 5841 5844 5847 5850 5853 5857 5860 5862 5865 5868 5870 5872 5875 5877 5879 5881 5883
5796 5793 5789 5786 5783 5780 5778 5777 5775 5775 5775 5776 5778 5781 5784 5788 5792 5796 5801 5805 5810 5815 5819 5823 5827 5830 5833 5836 5840 5842 5846 5849 5853 5855 5858 5860 5863 5866 5868 5870 5872 5874 5876
Wind_Speed
7 8 9 9 9 9 9 9 8 8 8 8 7 6 5 4 4 4 4 4 5 5 7 9 11 12 14 16 16 16 16 17 15 13 12 11 10 9 7 6 6 6 6
5 6 7 7 7 8 7 7 7 8 8 7 7 7 6 5 4 3 3 3 3 4 5 6 8 10 11 14 15 16 17 16 16 14 14 13 12 10 9 8 7 7 6
4 4 5 5 6 6 6 6 6 7 7 7 7 7 6 6 5 4 3 3 3 3 3 4 6 7 8 10 12 14 15 15 15 14 13 13 12 11 10 9 8 8 6
4 4 4 4 5 4 4 4 4 5 5 6 6 6 6 6 6 5 4 4 3 3 2 3 4 5 6 7 8 10 11 12 13 13 12 11 10 9 10 9 8 7 5
5 5 5 5 5 5 4 3 3 3 4 4 4 5 5 5 5 5 5 4 4 3 3 2 3 4 4 5 6 7 9 10 11 11 10 9 8 7 7 7 6 5 3
7 7 7 7 7 6 6 5 4 4 3 3 3 3 3 4 4 5 5 4 4 4 3 3 3 3 4 4 5 6 7 8 8 8 7 7 5 5 4 5 4 3 2
8 9 9 9 9 9 8 8 7 6 5 4 3 3 2 2 3 3 4 4 4 4 4 4 4 4 4 4 4 5 6 6 6 6 6 5 4 3 4 4 4 3 1
9 10 11 11 11 11 11 10 10 9 9 8 7 5 5 4 3 2 2 3 3 4 4 4 4 4 4 4 5 5 5 5 4 4 4 4 4 4 4 4 4 3 2
10 11 12 13 13 14 13 13 13 12 12 11 10 9 8 7 6 4 3 2 2 3 3 4 4 4 4 4 5 5 5 5 5 5 4 4 5 4 4 5 4 3 3
12 12 13 14 15 15 16 16 16 15 15 14 14 13 12 10 9 8 7 5 4 2 2 3 3 4 4 4 4 5 5 5 6 6 5 5 5 5 5 5 4 4 3
16 16 17 16 16 17 18 18 18 18 18 17 17 17 15 14 13 12 10 9 7 5 4 3 2 3 3 3 4 5 5 6 6 6 6 6 6 6 6 5 5 4 3
20 20 21 21 21 20 20 20 21 21 21 21 21 20 19 18 16 16 14 12 11 9 8 6 5 4 3 3 4 4 5 6 6 6 6 6 6 6 6 5 4 4 3
24 24 24 25 25 25 24 24 24 24 25 25 25 25 23 21 19 18 16 15 14 13 12 10 9 7 6 5 5 5 5 6 6 6 6 6 6 5 5 5 4 4 3
28 28 28 28 28 28 29 29 28 28 28 29 29 28 27 25 23 21 19 19 18 17 16 14 13 11 10 9 8 7 6 6 7 7 7 6 6 5 5 5 5 4 4
32 32 32 32 32 32 32 32 32 31 31 31 31 31 30 28 25 24 23 22 21 21 20 19 17 15 14 13 11 10 9 8 8 8 8 7 7 6 6 6 5 5 5
36 37 37 37 37 36 36 36 35 35 35 34 34 32 32 32 30 28 28 26 25 24 23 22 21 19 18 16 15 14 13 11 10 10 9 9 9 8 8 8 7 7 7
39 40 40 41 42 41 41 41 41 40 37 36 37 36 36 36 34 33 32 30 28 27 26 25 24 22 21 19 18 17 16 15 14 13 12 12 11 11 10 10 9 9 9
41 41 42 43 44 45 45 46 46 45 44 42 39 39 38 38 38 37 35 34 32 30 29 27 26 25 24 22 21 20 19 19 18 17 16 15 14 14 13 13 12 12 12
41 42 43 43 44 45 46 47 48 48 48 46 45 42 41 39 38 39 38 36 35 33 32 31 29 28 27 25 24 23 22 21 21 20 19 18 17 17 17 16 15 15 14
40 41 42 43 44 45 46 47 48 48 49 48 47 45 44 42 40 39 38 37 37 36 34 33 32 31 30 28 27 26 25 24 23 23 22 21 20 20 19 19 18 18 17
38 39 40 41 42 43 45 46 47 47 48 48 48 47 46 45 44 43 40 38 38 36 35 34 33 32 32 30 29 27 26 26 25 25 24 24 23 22 21 21 20 20 20
36 37 38 39 40 41 43 44 45 46 47 48 48 47 46 46 44 43 42 40 38 36 35 33 32 31 30 30 29 28 26 26 27 26 27 26 26 25 24 24 23 22 22
31 32 33 34 35 37 38 40 42 43 45 46 47 47 46 46 44 43 41 40 38 37 35 33 32 31 31 29 29 28 26 25 27 27 27 27 27 26 26 26 25 24 24
26 28 29 30 31 32 33 34 36 39 40 41 43 44 44 44 43 41 42 41 39 37 36 33 32 31 30 29 28 28 27 26 26 26 27 27 28 27 27 27 26 25 25
21 23 23 24 24 25 26 28 29 32 34 36 38 39 39 40 40 39 39 39 38 37 36 34 33 31 30 29 29 28 27 27 26 26 25 26 27 27 27 27 27 26 26
19 19 19 19 19 20 21 22 24 25 27 29 32 34 35 36 36 36 37 37 36 35 36 35 34 32 31 31 29 29 28 27 27 27 26 26 27 28 27 27 27 27 27
Wind_Direction
115 112 111 109 105 100 95 90 86 86 87 87 89 91 97 109 128 153 177 197 213 224 228 228 225 225 228 229 231 231 231 234 238 243 247 250 254 262 265 274 286 299 314
130 124 121 121 118 112 104 98 94 93 92 91 92 93 95 101 112 132 156 179 198 211 220 223 222 224 230 232 232 232 233 235 241 244 248 252 256 257 257 265 280 296 308
156 147 141 138 134 128 119 110 104 101 99 98 96 97 97 98 101 112 132 154 172 185 198 206 210 218 223 226 226 229 233 237 237 240 248 255 253 249 249 260 273 286 294
200 181 175 168 161 154 146 133 123 116 110 106 102 100 99 95 94 100 113 126 142 160 179 192 195 203 211 215 218 222 227 232 233 238 247 255 253 245 247 257 262 272 283
238 221 209 203 197 191 186 179 166 150 132 122 115 110 105 99 96 95 100 112 123 132 145 163 174 183 194 201 208 213 218 222 226 232 242 248 250 246 249 246 248 255 271
256 250 238 230 223 218 216 216 213 203 188 167 148 136 125 115 106 101 97 102 109 117 123 132 146 161 174 182 191 199 203 212 220 223 232 239 236 236 226 218 224 235 250
260 262 257 250 243 237 233 231 231 229 228 225 218 204 186 161 136 118 105 98 98 104 112 119 126 137 148 162 175 182 190 198 208 216 225 228 214 201 190 190 194 201 228
265 266 265 261 256 250 246 244 242 241 242 242 240 237 231 221 203 171 137 114 99 99 103 111 118 125 136 148 161 168 173 180 184 191 197 189 174 162 155 161 173 176 166
271 270 270 269 265 260 255 252 250 249 248 247 245 243 239 236 232 224 206 175 139 114 106 106 115 120 130 140 149 153 156 159 155 151 162 163 161 153 147 149 152 155 153
277 273 271 270 269 266 260 255 253 252 252 252 249 246 242 239 238 235 231 219 204 182 150 121 116 122 132 139 144 145 143 141 139 142 148 147 148 146 142 141 141 145 146
280 277 273 270 267 264 262 258 255 252 252 252 252 248 245 242 239 238 237 235 230 224 215 196 161 147 148 151 153 151 148 142 140 140 142 139 138 134 134 137 138 141 138
275 275 275 272 267 264 262 258 256 254 252 251 251 249 246 243 242 241 238 238 238 237 233 227 218 200 185 173 166 162 158 156 151 153 153 148 145 142 141 141 142 146 142
271 271 271 271 270 266 263 260 256 253 251 250 250 248 246 243 241 242 239 239 240 241 241 237 233 225 215 205 193 180 171 169 162 170 169 167 164 161 160 160 160 160 161
268 268 267 268 269 268 266 263 260 256 253 251 250 250 248 243 240 239 240 242 241 241 242 242 238 234 228 223 216 207 196 184 177 187 184 183 183 180 183 182 183 186 191
268 268 268 267 266 265 265 265 263 262 258 257 254 251 248 247 245 241 240 240 242 241 242 243 241 240 236 231 227 223 218 209 197 203 204 200 199 196 197 199 203 208 211
270 268 267 266 266 264 265 266 266 266 265 263 257 254 250 248 248 245 242 241 242 241 242 243 242 241 240 237 234 231 229 226 217 215 218 216 216 216 216 218 220 223 227
271 270 268 268 267 265 265 265 265 265 265 265 264 259 255 248 247 246 244 244 244 243 242 242 242 241 240 238 238 237 235 235 232 227 229 229 228 228 229 231 232 236 239
273 271 271 270 268 267 266 266 265 265 265 265 265 263 260 254 249 248 247 246 245 243 242 241 242 242 240 239 238 238 238 239 239 236 234 235 236 236 238 240 242 245 247
276 275 273 272 270 269 268 267 267 267 267 266 266 265 263 260 256 253 250 249 248 245 243 241 240 241 240 239 239 239 239 240 241 240 239 238 239 240 242 243 246 248 251
279 278 277 274 273 271 269 268 267 267 268 268 267 266 264 263 260 256 254 253 253 250 246 244 243 241 239 239 239 239 240 241 242 243 242 241 240 241 243 245 247 251 253
281 280 279 277 275 272 270 268 267 266 266 266 266 266 264 261 260 258 256 256 254 252 249 248 247 243 240 239 239 240 242 242 242 244 244 244 243 242 244 246 249 252 255
284 284 282 280 278 274 271 269 268 267 265 264 264 264 263 261 259 259 258 256 256 253 251 250 250 246 244 242 241 239 240 242 243 243 244 245 246 245 246 247 249 252 255
288 287 286 283 280 277 274 270 268 267 267 265 263 262 262 261 258 258 258 256 256 255 252 252 252 248 245 243 240 237 238 240 241 243 244 246 248 248 248 248 248 250 254
294 293 292 289 284 279 276 273 269 267 266 264 261 260 260 259 258 257 255 256 254 252 252 252 250 248 245 244 240 239 240 239 242 244 245 246 248 249 250 251 251 251 252
304 303 302 298 292 287 282 278 274 270 266 263 260 257 256 256 256 255 253 255 253 250 248 248 248 247 244 240 238 238 239 239 240 242 245 246 247 248 249 250 252 253 254
317 315 314 308 303 297 292 286 281 275 269 263 258 255 253 252 252 252 250 249 249 248 247 246 246 247 243 241 239 238 238 239 238 241 244 243 243 246 249 249 251 254 256